sat.trackr.live / text

‹ back to catalog

STARLINK-36308

NORAD 68543 · 2026-070B

PAYLOAD ACTIVE UNKNOWN

§ Identity

Operator
Country
US
Launch date
2026-04-02
Launch site
AFETR
Launch vehicle
Mass (kg)
RCS (m²)

Purposes: comms

External: N2YO · Heavens-Above · Gunter

§ Orbital elements

Epoch: 2026-09-19T23:29:01.853088Z

Period
93.85 min
Inclination
53.1575°
Eccentricity
0.0000505
Mean motion
15.34396736 rev/d
Perigee alt
462.4 km
Apogee alt
463.1 km
Semi-major
6,840.8 km
B*
5.6137e-4
RAAN
176.4210°
Arg perigee
149.4625°
Mean anomaly
210.6407°
Rev number
2,635

§ Raw data

STARLINK-363081 68543U 26070B   26262.97849367  .00018636  00000+0  56137-3 0  99902 68543  53.1575 176.4210 0000505 149.4625 210.6407 15.34396736 26359

JSON: /api/v1/satellites/68543 · /tle

For live sub-satellite position, see the globe view (requires WebGL).

§ Visibility from observer

Set your observer location to see the next 7 days of passes ≥ 10°. The values pass through the URL so the page stays shareable.

No JS? Fill the form by hand. The geolocation button needs JavaScript.